星链-31078 (STARLINK-31078 )

导读 | 豆包AI

STARLINK-31078是美国太空探索技术公司星链星座的卫星,于2023年12月23日发射入轨,隶属于SpaceX的Starlink项目。该卫星是星链互联网星座组网批次的成员之一,旨在为全球提供高速低延迟卫星互联网服务,补充星链在轨卫星容量,推进全球卫星互联网覆盖网络的建设。

基本信息
目录编号:
58638
目录名称:
STARLINK-31078
国际标识:
2023-203W
轨道中心:
EARTH
卫星名称:
星链-31078
卫星全名:
星链-31078 (STARLINK-31078 )
卫星状态:
在轨 (已飞行859 天)
发射日期:
2023-12-23 UTC
国别 :
美国 (US)
星等 :
--
轨道信息
数据来源 国际轨道数据 AOE轨道数据
星历时间 2026-04-30T18:33:27+0800
10小时前
查看轨道信息
2026-04-24T09:00:00+0800
6天前
查看轨道信息
半长轴 6861.177km 6861.17km
偏心率 0.0001174 0.0000016
轨道倾角 43.002° 42.993°
近地点辐角 291.720° 135.515°
升交点赤经 135.031° 171.152°
平近点角 68.352° 277.669°
近地点 482.234km 483.022km
远地点 483.846km 483.044km
周期 94.267分钟 94.266分钟
每日圈数 15.275832 15.275857
详细信息
固有亮度:
5
最大亮度:
0.3
卫星平台:
Starlink v2.0 mini
覆盖范围:
全球
运营商:
太空探索技术公司
运营商所在国:
美国
制造商(研发单位):
太空探索技术公司
制造商所在国:
美国
使用方式:
暂无
卫星简介
星链(Starlink)计划是由太空探索技术公司(SpaceX)提出的一个巨型低轨卫星互联网星座项目,计划在2019年至2024年间在太空搭建由约1.2万颗卫星组成的“星链”网络,其中1584颗将部署在地球上空550千米处的近地轨道,并从2020年开始工作。该卫星仍在工作。
2D轨道图
3D轨道图
轨道高度分析图
轨道倾角分析图
轨道综合分析图
查看轨道综合分析图